Location: Newark
(28.4500°N, 16.2500°W)
Time: 05:33:20
(UTC+00:00)

ISS - Visible Passes

Search period start: 14 October 2019 00:00
Search period end: 24 October 2019 00:00
Orbit: 411 x 421 km, 51.6° (Epoch: 14 October)

Date Brightness Start Highest point End Pass type
(mag) Time Alt. Az. Time Alt. Az. Time Alt. Az.
14 Oct -0.7 19:21:00 10° W 19:23:02 15° SW 19:25:05 10° SSW visible
20 Oct 0.0 06:21:26 10° SE 06:21:39 10° SE 06:21:53 10° ESE visible
22 Oct -2.2 06:17:49 10° SSW 06:20:57 37° SE 06:24:05 10° ENE visible
23 Oct -1.0 05:30:06 10° S 05:32:29 18° SE 05:34:53 10° E visible
